Weather past 2 weeks in Saipan, Northern Mariana Islands

Now
81 °F

Light rain. Fog.


Feels Like: 89 °F
Forecast: 76 / 84 °F
Wind: 6 mph from East

Location: Saipan International Airport


UV Index: 7 (High)

Visibility: 6 mi


Pressure: 29.89 "Hg

Humidity: 91%

Dew point: 78 °F

Location of SaipanLocation

Historic Weather in Saipan

°F

Saipan temperature yesterday

Maximum temperature yesterday: 87 °F (at 1:54 PM)
Minimum temperature yesterday: 79 °F (at 12:31 AM)
Average temperature yesterday: 82 °F

Past Weeks' High & Low Weather Summary

 TemperatureHumidityPressure
High89 °F (Apr 6, 12:54 PM)96% (Apr 13, 12:54 AM)30.01 "Hg (Apr 13, 12:54 AM)
Low75 °F (Apr 14, 5:54 AM)53% (Apr 9, 10:54 AM)29.76 "Hg (Apr 16, 2:28 PM)
Average82 °F78%29.90 "Hg
* Reported Apr 4 5:18 AM — Apr 19 5:54 AM, Saipan, Weather by CustomWeather, © 2014

Note: Actual official high and low records may vary slightly from our data, if they occured in-between our weather recording intervals... More about our weather records

Advertising

Historic Weather Conditions — Data for Previous 24 hours

 ConditionsComfort  
Time TempWeatherWind HumidityBarometerVisibility
5:54 AM
Apr 19
80 °FPassing clouds.6 mph87%29.87 "Hg10 mi
4:54 AM80 °FPassing clouds.6 mph87%29.86 "Hg10 mi
3:54 AM80 °FPassing clouds.7 mph87%29.85 "Hg10 mi
2:54 AM79 °FPartly cloudy.10 mph90%29.85 "Hg10 mi
1:54 AM81 °FPassing clouds.7 mph88%29.87 "Hg10 mi
12:54 AM81 °FPassing clouds.8 mph88%29.88 "Hg10 mi
11:54 PM
Apr 18
81 °FPassing clouds.9 mph88%29.90 "Hg10 mi
10:54 PM81 °FPassing clouds.10 mph85%29.91 "Hg10 mi
9:54 PM81 °FPassing clouds.12 mph85%29.91 "Hg10 mi
8:54 PM81 °FPassing clouds.9 mph88%29.90 "Hg10 mi
7:54 PM82 °FPassing clouds.8 mph85%29.88 "Hg10 mi
6:54 PM82 °FPassing clouds.10 mph82%29.86 "Hg10 mi
5:54 PM83 °FScattered clouds.10 mph82%29.84 "Hg10 mi
4:54 PM84 °FScattered clouds.12 mph77%29.82 "Hg10 mi
3:54 PM85 °FPassing clouds.13 mph77%29.83 "Hg10 mi
2:54 PM86 °FScattered clouds.10 mph75%29.84 "Hg10 mi
1:54 PM87 °FScattered clouds.13 mph72%29.84 "Hg10 mi
1:02 PM86 °FScattered clouds.13 mph79%29.80 "Hg10 mi
12:54 PM86 °FPartly sunny.13 mph77%29.86 "Hg10 mi
12:20 PM86 °FPartly sunny.14 mph75%29.81 "Hg10 mi
11:54 AM86 °FScattered clouds.14 mph77%29.88 "Hg10 mi
10:54 AM85 °FPassing clouds.13 mph77%29.89 "Hg10 mi
9:54 AM84 °FPassing clouds.12 mph80%29.91 "Hg10 mi
8:54 AM84 °FScattered clouds.15 mph80%29.91 "Hg10 mi
8:25 AM82 °FScattered clouds.13 mph84%29.84 "Hg10 mi
8:18 AM82 °FPartly sunny.15 mph84%29.84 "Hg10 mi
7:54 AM82 °FScattered clouds.16 mph85%29.90 "Hg10 mi
Weather by CustomWeather, © 2014

See weather overview